Location: Arrodets-la-Barthe
(43.0306°N, 0.2829°E)
Time: 02:16:31
(UTC+00:00)

NOAA 19 - Pass Details

Date: 06 April 2023
Orbit: 840 x 859 km, 99.1° (Epoch: 29 May)

Event Time Altitude Azimuth Distance (km) Brightness Sun altitude
Exits shadow 19:06:04 - 144° (SE) 3,295 7.8 -7.1°
Reaches altitude 10° 19:08:15 10° 138° (SE) 2,461 7.1 -7.5°
Maximum altitude 19:13:22 43° 68° (ENE) 1,168 5.6 -8.4°
Drops below altitude 10° 19:18:30 10° 359° (N) 2,469 7.9 -9.3°
Sets 19:20:58 0° 352° (N) 3,407 8.7 -9.7°
